TimeCDT,TemperatureF,Dew PointF,Humidity,Sea Level PressureIn,VisibilityMPH,Wind Direction,Wind SpeedMPH,Gust SpeedMPH,PrecipitationIn,Events,Conditions,WindDirDegrees,DateUTC
12:16 AM,51.8,41.0,67,29.88,10.0,East,3.5,-,N/A,,Clear,100,2012-10-04 05:16:00
12:36 AM,51.8,41.0,67,29.87,10.0,East,3.5,-,N/A,,Clear,100,2012-10-04 05:36:00
12:56 AM,51.8,42.8,71,29.87,10.0,East,3.5,-,N/A,,Clear,100,2012-10-04 05:56:00
1:16 AM,51.8,42.8,71,29.86,10.0,East,4.6,-,N/A,,Scattered Clouds,100,2012-10-04 06:16:00
1:36 AM,51.8,42.8,71,29.85,10.0,East,4.6,-,N/A,,Scattered Clouds,100,2012-10-04 06:36:00
1:56 AM,51.8,42.8,71,29.84,10.0,East,4.6,-,N/A,,Clear,90,2012-10-04 06:56:00
2:16 AM,51.8,41.0,67,29.84,10.0,East,5.8,-,N/A,,Clear,100,2012-10-04 07:16:00
2:36 AM,51.8,41.0,67,29.82,10.0,East,5.8,-,N/A,,Clear,90,2012-10-04 07:36:00
2:56 AM,51.8,41.0,67,29.81,10.0,East,3.5,-,N/A,,Clear,100,2012-10-04 07:56:00
3:16 AM,51.8,42.8,71,29.80,10.0,East,5.8,-,N/A,,Clear,90,2012-10-04 08:16:00
3:36 AM,51.8,42.8,71,29.79,10.0,East,4.6,-,N/A,,Clear,100,2012-10-04 08:36:00
3:56 AM,51.8,42.8,71,29.78,10.0,East,5.8,-,N/A,,Clear,90,2012-10-04 08:56:00
4:16 AM,51.8,42.8,71,29.76,10.0,East,6.9,-,N/A,,Clear,100,2012-10-04 09:16:00
4:36 AM,51.8,42.8,71,29.75,10.0,East,6.9,-,N/A,,Clear,90,2012-10-04 09:36:00
4:56 AM,51.8,42.8,71,29.73,10.0,East,6.9,-,N/A,,Clear,100,2012-10-04 09:56:00
5:16 AM,53.6,42.8,67,29.73,10.0,SE,6.9,-,N/A,,Clear,140,2012-10-04 10:16:00
5:36 AM,53.6,42.8,67,29.70,10.0,ESE,8.1,-,N/A,,Scattered Clouds,120,2012-10-04 10:36:00
5:56 AM,53.6,44.6,72,29.70,10.0,SE,6.9,10.4,N/A,,Mostly Cloudy,130,2012-10-04 10:56:00
6:16 AM,53.6,44.6,72,29.69,10.0,ESE,10.4,-,N/A,,Mostly Cloudy,120,2012-10-04 11:16:00
6:36 AM,53.6,44.6,72,29.67,10.0,ESE,8.1,17.3,N/A,,Scattered Clouds,120,2012-10-04 11:36:00
6:56 AM,53.6,44.6,72,29.67,10.0,ESE,9.2,16.1,N/A,,Clear,120,2012-10-04 11:56:00
7:16 AM,51.8,44.6,76,29.67,10.0,ESE,6.9,-,N/A,,Clear,120,2012-10-04 12:16:00
7:36 AM,53.6,41.0,62,29.68,10.0,South,13.8,21.9,N/A,,Clear,180,2012-10-04 12:36:00
7:56 AM,50.0,37.4,62,29.68,10.0,South,19.6,33.4,N/A,,Clear,190,2012-10-04 12:56:00
8:16 AM,48.2,37.4,66,29.69,10.0,South,18.4,28.8,N/A,,Mostly Cloudy,190,2012-10-04 13:16:00
8:36 AM,48.2,39.2,71,29.69,10.0,SSW,17.3,26.5,N/A,,Overcast,200,2012-10-04 13:36:00
8:56 AM,48.2,39.2,71,29.70,10.0,SSW,16.1,23.0,N/A,,Overcast,200,2012-10-04 13:56:00
9:16 AM,48.2,37.4,66,29.70,10.0,South,17.3,25.3,N/A,,Overcast,190,2012-10-04 14:16:00
9:36 AM,48.2,37.4,66,29.70,10.0,SSW,16.1,24.2,N/A,,Overcast,200,2012-10-04 14:36:00
9:55 AM,46.4,37.4,71,29.70,10.0,SSW,16.1,26.5,N/A,,Overcast,200,2012-10-04 14:55:00
10:16 AM,46.4,37.4,71,29.71,10.0,SSW,18.4,24.2,N/A,,Overcast,210,2012-10-04 15:16:00
10:36 AM,46.4,37.4,71,29.71,10.0,SSW,13.8,28.8,N/A,,Overcast,210,2012-10-04 15:36:00
10:55 AM,46.4,37.4,71,29.72,10.0,SSW,13.8,26.5,N/A,,Overcast,210,2012-10-04 15:55:00
11:16 AM,44.6,35.6,71,29.73,10.0,SSW,18.4,27.6,N/A,,Overcast,210,2012-10-04 16:16:00
11:36 AM,42.8,35.6,76,29.74,4.0,SSW,24.2,29.9,N/A,,Haze,210,2012-10-04 16:36:00
11:56 AM,42.8,33.8,70,29.75,10.0,SW,21.9,28.8,N/A,,Overcast,230,2012-10-04 16:56:00
12:16 PM,42.8,32.0,66,29.76,10.0,SW,19.6,26.5,N/A,,Overcast,230,2012-10-04 17:16:00
12:36 PM,42.8,30.2,61,29.78,10.0,SW,21.9,34.5,N/A,,Overcast,230,2012-10-04 17:36:00
12:56 PM,42.8,30.2,61,29.79,10.0,WSW,18.4,27.6,N/A,,Overcast,240,2012-10-04 17:56:00
1:36 PM,42.8,28.4,57,29.80,10.0,WSW,23.0,32.2,N/A,,Overcast,240,2012-10-04 18:36:00
1:55 PM,42.8,28.4,57,29.81,10.0,SW,20.7,29.9,N/A,,Overcast,220,2012-10-04 18:55:00
2:16 PM,42.8,28.4,57,29.81,10.0,WSW,25.3,31.1,N/A,,Overcast,240,2012-10-04 19:16:00
2:36 PM,42.8,26.6,53,29.82,10.0,WSW,24.2,36.8,N/A,,Overcast,240,2012-10-04 19:36:00
2:55 PM,42.8,26.6,53,29.83,10.0,WSW,21.9,28.8,N/A,,Overcast,240,2012-10-04 19:55:00
3:16 PM,44.6,24.8,46,29.84,10.0,WSW,17.3,39.1,N/A,,Overcast,250,2012-10-04 20:16:00
3:36 PM,44.6,24.8,46,29.84,10.0,WSW,24.2,34.5,N/A,,Overcast,240,2012-10-04 20:36:00
3:56 PM,42.8,24.8,49,29.85,10.0,SW,23.0,35.7,N/A,,Overcast,230,2012-10-04 20:56:00
4:15 PM,42.8,26.6,53,29.86,10.0,WSW,21.9,34.5,N/A,,Overcast,240,2012-10-04 21:15:00
4:36 PM,42.8,26.6,53,29.86,10.0,WSW,26.5,32.2,N/A,,Overcast,250,2012-10-04 21:36:00
4:56 PM,42.8,26.6,53,29.87,10.0,WSW,19.6,27.6,N/A,,Overcast,250,2012-10-04 21:56:00
5:16 PM,42.8,26.6,53,29.88,10.0,WSW,23.0,32.2,N/A,,Overcast,240,2012-10-04 22:16:00
5:36 PM,41.0,26.6,57,29.89,10.0,WSW,21.9,29.9,N/A,,Overcast,250,2012-10-04 22:36:00
5:56 PM,41.0,26.6,57,29.89,10.0,WSW,20.7,29.9,N/A,,Overcast,240,2012-10-04 22:56:00
6:16 PM,39.2,26.6,61,29.90,10.0,WSW,21.9,29.9,N/A,,Overcast,240,2012-10-04 23:16:00
6:36 PM,39.2,28.4,65,29.90,10.0,WSW,13.8,25.3,N/A,,Overcast,250,2012-10-04 23:36:00
6:56 PM,37.4,30.2,75,29.91,10.0,WSW,12.7,18.4,N/A,Rain,Light Rain,250,2012-10-04 23:56:00
7:16 PM,39.2,28.4,65,29.91,10.0,WSW,15.0,29.9,N/A,,Overcast,240,2012-10-05 00:16:00
7:36 PM,37.4,26.6,65,29.92,10.0,WSW,15.0,34.5,N/A,Rain,Light Rain,250,2012-10-05 00:36:00
7:56 PM,37.4,26.6,65,29.92,10.0,West,21.9,29.9,N/A,,Overcast,260,2012-10-05 00:56:00
9:16 PM,37.4,26.6,65,29.93,10.0,WSW,18.4,28.8,N/A,,Overcast,250,2012-10-05 02:16:00
9:36 PM,37.4,26.6,65,29.93,10.0,WSW,16.1,28.8,N/A,,Overcast,250,2012-10-05 02:36:00
9:56 PM,37.4,26.6,65,29.93,10.0,WSW,15.0,23.0,N/A,,Overcast,250,2012-10-05 02:56:00
10:16 PM,37.4,26.6,65,29.93,10.0,West,18.4,26.5,N/A,,Overcast,260,2012-10-05 03:16:00
10:36 PM,37.4,26.6,65,29.93,10.0,WSW,12.7,24.2,N/A,,Overcast,250,2012-10-05 03:36:00
10:56 PM,37.4,26.6,65,29.93,10.0,West,16.1,27.6,N/A,,Overcast,260,2012-10-05 03:56:00
11:16 PM,37.4,26.6,65,29.93,10.0,West,17.3,32.2,N/A,,Overcast,260,2012-10-05 04:16:00
11:36 PM,37.4,24.8,60,29.93,10.0,West,17.3,32.2,N/A,,Overcast,260,2012-10-05 04:36:00
11:56 PM,37.4,24.8,60,29.94,10.0,West,15.0,36.8,N/A,,Overcast,270,2012-10-05 04:56:00